Location: Unspecified
(0.0000°N, 0.0000°E)
Time: 07:10:33
(UTC+00:00)

Tiros 1 despin weight - Pass Details

Date: 08 October 2023
Orbit: 583 x 627 km, 48.2° (Epoch: 05 December)

Event Time Altitude Azimuth Distance (km) Brightness Sun altitude
Rises 00:50:49 0° 335° (NNW) 2,788 - -73.3°
Reaches altitude 10° 00:53:13 10° 344° (NNW) 1,888 - -72.7°
Maximum altitude 00:57:11 36° 51° (NE) 930 - -71.8°
Drops below altitude 10° 01:01:10 10° 118° (ESE) 1,893 - -70.8°
Sets 01:03:35 0° 126° (SE) 2,796 - -70.2°
